星链-37029(STARLINK-37029)

导读

STARLINK-37029(NORAD编号68271)是美国SpaceX公司星链(Starlink)卫星互联网星座的一员,部署于近地轨道,属于星链大规模组网计划的组成部分。 作为低轨通信卫星,它延续了星链卫星的典型设计:采用紧凑型平板结构,搭载Ku/Ka/E频段相控阵天线与星间激光链路,配合氩气离子推进系统实现轨道机动与离轨处置,通过低轨道部署提供低时延、高带宽的全球互联网接入服务,支持偏远地区通信、应急连接等场景,目前处于在轨运行状态。

Basic Information
目录编号:
68271
目录名称:
STARLINK-37029
国际标识:
2026-055K
轨道中心:
EARTH
卫星名称:
星链-37029
卫星全名:
星链-37029(STARLINK-37029)
卫星状态:
在轨 (已飞行169 天)
发射日期:
2026-03-19 UTC
国别 :
美国 (US)
星等 :
--
Orbit Information
数据来源 国际轨道数据
星历时间: 2026-09-03T12:11:25+0800
1天前
查看轨道信息
半长轴: 6840.866km
偏心率: 0.0000649
轨道倾角: 53.160°
近地点辐角 41.881°
升交点赤经 210.685°
平近点角 318.224°
近地点: 462.285km
远地点: 463.173km
周期: 93.848分钟
每日圈数: 15.343916
Detailed Information
固有亮度:
5
最大亮度:
2.5
卫星平台:
Starlink V1.0
覆盖范围:
全球
运营商:
太空探索技术公司
运营商所在国:
美国
制造商(研发单位):
太空探索技术公司
制造商所在国:
美国
使用方式:
暂无
Satellite Introduction
Starlink 计划是 SpaceX 推出的全球卫星互联网项目,通过发射低轨道卫星,为全球尤其是偏远地区提供高速、低延迟的互联网服务。自 2019 年起,Starlink 已部署数千颗卫星,旨在缩小全球数字鸿沟,推动互联网普及。该项目还为军事、航空等行业提供通信支持,带来广泛经济效益。
2D Orbit Map
3D Orbit Map
Orbit Altitude Analysis Chart
Orbit Inclination Analysis Chart
Orbit Comprehensive Analysis Chart
View Comprehensive Chart
Conjunction Data List
Event ID Objects TCA Miss Dist (km) Collision Risk Probability Collision Risk Index (CRI) Action
CDM_260904-073405-475006-827124
2026-09-04T
07:34:28+0000
0.447 km
远距离
2.159634E-4 高风险 0.82
CDM_260904-071406-012906-827121
2026-09-04T
07:14:56+0000
0.899 km
远距离
2.262156E-5 中风险 0.62
CDM_260904-155006-012906-827121
2026-09-04T
15:50:47+0000
1.207 km
极远距离
8.195442E-6 低风险 0.53
CDM_260904-020605-912506-827123
2026-09-04T
02:06:30+0000
1.625 km
极远距离
5.175933E-6 低风险 0.49
CDM_260904-172406-012906-827121
2026-09-04T
17:24:35+0000
2.065 km
极远距离
1.635877E-6 低风险 0.39
CDM_260904-054106-012906-827121
2026-09-04T
05:41:09+0000
2.178 km
极远距离
1.454033E-6 低风险 0.38
CDM_260905-023706-073806-827121
2026-09-05T
02:37:39+0000
2.700 km
极远距离
8.313082E-7 极低风险 0.33
CDM_260829-181305-015906-827122
2026-08-29T
18:13:40+0000
2.733 km
极远距离
7.244103E-7 极低风险 0.32